默认 日期 大小 文件数 浏览量 最新下载 xml
realms磁力链接相关资源由用户搜索指令自动获取,结果来源于网络,本站不存储任何资料,亦不承担任何责任,请于24小时内删除,搜索到2631个磁力,用时2ms。
    ... 289764372, "Dragons.The.Nine.Realms.S02E02.400p.ColdFilm.avi": ... 290549054, "Dragons.The.Nine.Realms.S02E03.400p.ColdFilm.avi": ... 292662844, "Dragons.The.Nine.Realms.S02E04.400p.ColdFilm.avi": ... 289793356, "Dragons.The.Nine.Realms.S02E07.400p.ColdFilm.avi": ...
创建时间: 2022-05-07 17:39:44 大小:1.89 GB 文件数量:7 热度:3 最近下载:2025-01-26 02:14:07
    ... .txt": 85, "Dragons.The.Nine.Realms.S02E03.480p.x264-mSD.mkv ... ": 135028034, "Dragons.The.Nine.Realms.S02E03.480p.x264-mSD.nfo ...
创建时间: 2022-05-07 19:26:36 大小:129.44 MB 文件数量:6 热度:3 最近下载:2025-02-23 07:47:02
    ... 518084, "Dragons.The.Nine.Realms.S02E01.WEBRip.x264-XEN0N.Screen0001 ... 256474, "Dragons.The.Nine.Realms.S02E01.WEBRip.x264-XEN0N.Screen0002 ... , "Dragons.The.Nine.Realms.S02E01.WEBRip.x264-XEN0N.Screen0003 ... , "Dragons.The.Nine.Realms.S02E01.WEBRip.x264-XEN0N.nfo ...
创建时间: 2022-05-07 20:03:50 大小:142.83 MB 文件数量:6 热度:4 最近下载:2025-01-22 14:20:06
    ... 235219774, "Dragons.The.Nine.Realms.S02E02.WEBRip.x264-ION10[eztv ... 234668397, "Dragons.The.Nine.Realms.S02E03.WEBRip.x264-ION10[eztv ... 235463553, "Dragons.The.Nine.Realms.S02E04.WEBRip.x264-ION10[eztv ... , "Dragons.The.Nine.Realms.S02E05.WEBRip.x264-ION10[eztv ...
创建时间: 2022-05-07 21:31:28 大小:1.53 GB 文件数量:14 热度:3 最近下载:2025-01-26 19:09:06
    ... 1298932223, "Dragons.The.Nine.Realms.S02E02.1080p.WEB.h264-KOGi ... 1339507156, "Dragons.The.Nine.Realms.S02E03.1080p.WEB.h264-KOGi ... 1340766349, "Dragons.The.Nine.Realms.S02E04.1080p.WEB.h264-KOGi ... 1345909168, "Dragons.The.Nine.Realms.S02E05.1080p.WEB.h264-KOGi ...
创建时间: 2022-05-07 23:39:57 大小:8.7 GB 文件数量:8 热度:7 最近下载:2025-05-07 15:10:01
    ... 340676608, "Dragons.the.Nine.Realms.S02E02.400p.Ultradox.avi": ... 340213760, "Dragons.the.Nine.Realms.S02E03.400p.Ultradox.avi": ... 337510400, "Dragons.the.Nine.Realms.S02E04.400p.Ultradox.avi": ... 340236288, "Dragons.the.Nine.Realms.S02E07.400p.Ultradox.avi": ...
创建时间: 2022-05-08 06:35:23 大小:2.21 GB 文件数量:7 热度:3 最近下载:2025-01-20 03:48:01
    ... 1365080215, "Dragons.The.Nine.Realms.S02E02.1080p.WEB.h264-KOGi ... 1405650694, "Dragons.The.Nine.Realms.S02E03.1080p.WEB.h264-KOGi ... 1406905535, "Dragons.The.Nine.Realms.S02E04.1080p.WEB.h264-KOGi ... 1411814241, "Dragons.The.Nine.Realms.S02E05.1080p.WEB.h264-KOGi ...
创建时间: 2022-05-08 11:56:22 大小:9.13 GB 文件数量:7 热度:5 最近下载:2025-05-15 14:10:02
    ... 31116}, "Dragons.The.Nine.Realms.S02E02.WEBRip.x265-ION265": {" ... 33760}, "Dragons.The.Nine.Realms.S02E03.WEBRip.x265-ION265": {" ... 32474}, "Dragons.The.Nine.Realms.S02E04.WEBRip.x265-ION265": {" ... 31428}, "Dragons.The.Nine.Realms.S02E05.WEBRip.x265-ION265": {" ...
创建时间: 2022-05-08 13:41:21 大小:1.06 GB 文件数量:15 热度:3 最近下载:2025-01-10 16:44:02
    ... 373433, "Dragons.The.Nine.Realms.S02E06.WEBRip.x264-XEN0N.Screen0001 ... 441498, "Dragons.The.Nine.Realms.S02E06.WEBRip.x264-XEN0N.Screen0002 ... , "Dragons.The.Nine.Realms.S02E06.WEBRip.x264-XEN0N.Screen0003 ... , "Dragons.The.Nine.Realms.S02E06.WEBRip.x264-XEN0N.nfo ...
创建时间: 2022-05-08 14:58:31 大小:167.03 MB 文件数量:6 热度:4 最近下载:2025-01-27 02:03:05
    ... 349421, "Dragons.The.Nine.Realms.S02E03.WEBRip.x264-XEN0N.Screen0001 ... 475629, "Dragons.The.Nine.Realms.S02E03.WEBRip.x264-XEN0N.Screen0002 ... , "Dragons.The.Nine.Realms.S02E03.WEBRip.x264-XEN0N.Screen0003 ... , "Dragons.The.Nine.Realms.S02E03.WEBRip.x264-XEN0N.nfo ...
创建时间: 2022-05-08 19:42:57 大小:172.22 MB 文件数量:6 热度:3 最近下载:2025-02-09 09:19:02
    ... ": 323667388, "[HR] Dragons The Nine Realms S01E02 [E6EBCF04].mkv": 211521024, "[HR ... ] Dragons The Nine Realms S01E03 [CB59F294].mkv": 357632223, "[HR ... ": 274819842, "[HR] Dragons The Nine Realms S01E06 [8107D3FF].mkv": 309657485, "[Hakata ...
创建时间: 2022-05-09 09:13:42 大小:1.73 GB 文件数量:7 热度:4 最近下载:2025-05-05 03:44:02
    {"Setup.exe": 5168145, "Verify.exe": 95744, "MASQUERADE-Data_00.MSQ": 534280234, "MASQUERADE-Data_01.MSQ": 104985195, "MASQUERADE-Data_02.MSQ": 18877980, "MASQUERADE-Data_03.MSQ": 214989469, "Masquerade Discord.url": 116, "Masquerade New Releases.url": 114 ...
创建时间: 2022-05-09 12:56:57 大小:1.1 GB 文件数量:9 热度:7 最近下载:2025-03-11 17:56:01
    ... ": 761845409, "Dragons.The.Nine.Realms.S02E02.720p.WEB.h264-KOGi ... ": 810898552, "Dragons.The.Nine.Realms.S02E03.720p.WEB.h264-KOGi ... ": 825190659, "Dragons.The.Nine.Realms.S02E04.720p.WEB.h264-KOGi ... ": 833120420, "Dragons.The.Nine.Realms.S02E05.720p.WEB.h264-KOGi ...
创建时间: 2022-05-09 17:41:05 大小:5.31 GB 文件数量:8 热度:4 最近下载:2025-01-05 13:48:02
    {"folder.jpg": 1002611, "01 - Introspection I.flac": 18878427, "04 - Introspection II.flac": 19898071, "03 - In This Empty Space.flac": 71864117, "05 - Where No Warmth is Found.flac": 70260583, "06 - As Black Forms from Grey.flac": 88278704, "07 - Awake ...
创建时间: 2022-05-09 20:05:31 大小:458.13 MB 文件数量:8 热度:5 最近下载:2025-02-25 04:40:01
    ... 789838399, "Dragons.The.Nine.Realms.S01E05.Featherhide.1080p.HULU.WEB ... , "Dragons.The.Nine.Realms.S01E01.First.Flight.(1).1080p ... , "Dragons.The.Nine.Realms.S01E02.First.Flight.(2).1080p ... 779901881, "Dragons.The.Nine.Realms.S01E06.Fault.Ripper.REPACK.1080p ...
创建时间: 2022-05-09 21:10:06 大小:4 GB 文件数量:6 热度:10 最近下载:2025-06-03 00:07:01
    ... 1365080262, "Dragons.The.Nine.Realms.S02E02.1080p.WEB.h264-KOGi ... 1405650692, "Dragons.The.Nine.Realms.S02E03.1080p.WEB.h264-KOGi ... 1406905535, "Dragons.The.Nine.Realms.S02E04.1080p.WEB.h264-KOGi ... 1411814269, "Dragons.The.Nine.Realms.S02E05.1080p.WEB.h264-KOGi ...
创建时间: 2022-05-09 21:34:34 大小:9.13 GB 文件数量:7 热度:6 最近下载:2025-04-03 22:27:01
    ... 387973388, "Dragons.The.Nine.Realms.S02E02.1080p.WEBRip.x265-RARBG ... 387975886, "Dragons.The.Nine.Realms.S02E03.1080p.WEBRip.x265-RARBG ... 388032396, "Dragons.The.Nine.Realms.S02E04.1080p.WEBRip.x265-RARBG ... , "Dragons.The.Nine.Realms.S02E05.1080p.WEBRip.x265-RARBG ...
创建时间: 2022-05-10 05:36:03 大小:2.53 GB 文件数量:14 热度:5 最近下载:2025-05-02 05:46:01
    ... ": 289451170, "[HR] Dragons The Nine Realms S02E02 [885327C8].mkv": 301388610, "[HR ... ] Dragons The Nine Realms S02E03 [917D41FB].mkv": 419692485, "[HR ... ": 383238115, "[HR] Dragons The Nine Realms S02E07 [9570804E].mkv": 576702178, "[Hakata ...
创建时间: 2022-05-10 06:01:05 大小:2.64 GB 文件数量:8 热度:4 最近下载:2025-01-05 13:48:03
    ... 387973388, "Dragons.The.Nine.Realms.S02E02.1080p.WEBRip.x265-RARBG ... 387975886, "Dragons.The.Nine.Realms.S02E03.1080p.WEBRip.x265-RARBG ... 388032396, "Dragons.The.Nine.Realms.S02E04.1080p.WEBRip.x265-RARBG ... , "Dragons.The.Nine.Realms.S02E05.1080p.WEBRip.x265-RARBG ...
创建时间: 2022-05-10 14:24:14 大小:2.53 GB 文件数量:15 热度:5 最近下载:2025-05-06 00:40:02
    ... 529812455, "Dragons.the.Nine.Realms.S02E02.720p.Ultradox.mkv": ... 533159511, "Dragons.the.Nine.Realms.S02E03.720p.Ultradox.mkv": ... 539010687, "Dragons.the.Nine.Realms.S02E04.720p.Ultradox.mkv": ... 540577006, "Dragons.the.Nine.Realms.S02E07.720p.Ultradox.mkv": ...
创建时间: 2022-05-11 05:39:16 大小:3.51 GB 文件数量:7 热度:3 最近下载:2025-02-08 05:20:01